FW9555 Weather Reports


Display with metric or nautical units.
time (UTC)temp
F
wind
direction
speed
MPH
gust
MPH
rain 1hr
in
rain 24hr
in
rain mn
in
humidity
%
barometer
mb
20260510025659 61 8 0.0 0.0 0.00 0.00 0.00 98 1016.0
20260510025156 61 0 0.0 0.0 0.00 0.00 0.00 97 1015.9
20260510024653 61 0 0.0 0.0 0.00 0.00 0.00 97 1016.1
20260510024149 61 15 0.0 0.0 0.00 0.00 0.00 97 1016.2
20260510023645 61 15 0.0 0.0 0.00 0.00 0.00 97 1016.1
20260510023142 61 15 0.0 0.0 0.00 0.00 0.00 97 1015.9
20260510022637 61 15 0.0 0.0 0.00 0.00 0.00 97 1015.9
20260510022132 61 15 0.0 0.0 0.00 0.00 0.00 96 1015.8
20260510021628 61 20 0.0 1.0 0.00 0.00 0.00 96 1015.7
20260510021126 62 35 0.0 0.0 0.00 0.00 0.00 96 1015.5
20260510020620 62 15 0.0 0.0 0.00 0.00 0.00 96 1015.4
20260510020115 62 23 0.0 0.0 0.00 0.00 0.00 95 1015.4
20260510015612 62 23 0.0 0.0 0.00 0.00 0.00 95 1015.7
20260510015108 62 23 0.0 0.0 0.00 0.00 0.00 95 1015.5
20260510014604 62 23 0.0 0.0 0.00 0.00 0.00 95 1015.2
20260510014102 62 23 0.0 0.0 0.00 0.00 0.00 94 1015.2
20260510013556 63 23 0.0 0.0 0.00 0.00 0.00 94 1015.2
20260510013052 62 23 0.0 0.0 0.00 0.00 0.00 93 1015.3
20260510012545 63 23 0.0 0.0 0.00 0.00 0.00 94 1015.1
20260510012043 63 23 0.0 0.0 0.00 0.00 0.00 93 1015.0
20260510011542 64 23 0.0 0.0 0.00 0.00 0.00 93 1014.9
20260510011038 63 15 0.0 1.0 0.00 0.00 0.00 93 1014.7
20260510010535 64 8 0.0 1.0 0.00 0.00 0.00 92 1014.8
20260510010032 64 15 0.0 0.0 0.00 0.00 0.00 92 1014.6
20260510005527 64 15 0.0 0.0 0.00 0.00 0.00 91 1014.7
20260510005026 64 15 0.0 1.0 0.00 0.00 0.00 91 1014.4
20260510004523 64 0 1.0 1.0 0.00 0.00 0.00 90 1014.4
20260510004021 65 353 1.0 1.0 0.00 0.00 0.00 90 1014.2
20260510003517 65 0 0.0 0.0 0.00 0.00 0.00 89 1014.3
20260510003013 66 0 0.0 0.0 0.00 0.00 0.00 88 1014.2
20260510002508 66 0 0.0 0.0 0.00 0.00 0.00 88 1014.1
20260510002005 67 8 0.0 1.0 0.00 0.00 0.00 87 1014.2
20260510001503 68 23 0.0 0.0 0.00 0.00 0.00 85 1014.0
20260510001001 68 23 0.0 0.0 0.00 0.00 0.00 84 1013.9
20260510000456 69 23 0.0 1.0 0.00 0.00 0.00 83 1013.9
20260509235953 69 0 0.0 0.0 0.00 0.00 0.00 83 1014.0
20260509235449 69 0 0.0 0.0 0.00 0.00 0.00 82 1013.9
20260509234946 69 0 0.0 0.0 0.00 0.00 0.00 82 1014.0
20260509234443 70 11 0.0 0.0 0.00 0.00 0.00 81 1013.8
20260509233941 70 11 0.0 0.0 0.00 0.00 0.00 80 1013.9
20260509233438 70 11 0.0 0.0 0.00 0.00 0.00 81 1013.7
20260509232933 70 11 0.0 2.0 0.00 0.00 0.00 80 1013.6
20260509232432 70 29 0.0 0.0 0.00 0.00 0.00 80 1013.6
20260509231927 71 35 0.0 0.0 0.00 0.00 0.00 79 1013.7
20260509231424 70 35 0.0 2.0 0.00 0.00 0.00 79 1013.6
20260509230922 71 15 2.0 3.0 0.00 0.00 0.00 77 1013.5
20260509230419 71 6 0.0 1.0 0.00 0.00 0.00 76 1013.7
20260509225915 73 74 0.0 0.0 0.00 0.00 0.00 75 1013.6
20260509225412 73 74 0.0 0.0 0.00 0.00 0.00 75 1013.7
20260509224908 73 0 0.0 0.0 0.00 0.00 0.00 74 1013.5
20260509224403 73 74 0.0 0.0 0.00 0.00 0.00 76 1013.7
20260509223901 72 352 0.0 2.0 0.00 0.00 0.00 75 1013.5
20260509223357 72 77 2.0 5.0 0.00 0.00 0.00 74 1013.4
20260509222854 74 294 0.0 3.0 0.00 0.00 0.00 74 1013.4
20260509222355 73 85 2.0 4.0 0.00 0.00 0.00 74 1013.5
20260509221850 74 355 0.0 2.0 0.00 0.00 0.00 74 1013.3
20260509221348 74 311 0.0 3.0 0.00 0.00 0.00 72 1013.1
20260509220843 73 12 2.0 4.0 0.00 0.00 0.00 72 1013.2
20260509220339 74 298 4.0 4.0 0.00 0.00 0.00 72 1013.1
20260509215835 77 294 0.0 2.0 0.00 0.00 0.00 71 1013.3
20260509215332 77 63 0.0 2.0 0.00 0.00 0.00 71 1013.2
20260509214829 76 54 0.0 1.0 0.00 0.00 0.00 72 1013.1
20260509214326 76 278 0.0 1.0 0.00 0.00 0.00 71 1013.1
20260509213823 76 74 1.0 2.0 0.00 0.00 0.00 73 1012.9
20260509213318 75 328 2.0 3.0 0.00 0.00 0.00 71 1013.0
20260509212816 75 328 2.0 3.0 0.00 0.00 0.00 72 1013.0
20260509212314 73 68 2.0 4.0 0.00 0.00 0.00 73 1013.0
20260509211809 73 0 0.0 2.0 0.00 0.00 0.00 74 1013.0
20260509211305 74 8 0.0 0.0 0.00 0.00 0.00 73 1012.8
20260509210802 75 315 0.0 3.0 0.00 0.00 0.00 73 1012.9
20260509210300 76 292 2.0 2.0 0.00 0.00 0.00 74 1013.0
20260509205759 75 63 0.0 0.0 0.00 0.00 0.00 73 1013.1
20260509205254 75 270 0.0 7.0 0.00 0.00 0.00 73 1013.1
20260509204750 75 303 0.0 0.0 0.00 0.00 0.00 72 1012.9
20260509204247 75 66 0.0 2.0 0.00 0.00 0.00 74 1012.9
20260509203743 75 90 2.0 3.0 0.00 0.00 0.00 74 1013.3
20260509203241 76 286 0.0 1.0 0.00 0.00 0.00 74 1013.2
20260509202736 75 337 0.0 2.0 0.00 0.00 0.00 75 1013.1
20260509202233 75 90 0.0 0.0 0.00 0.00 0.00 73 1013.1
20260509201727 75 279 0.0 2.0 0.00 0.00 0.00 73 1013.3
20260509201224 75 270 0.0 3.0 0.00 0.00 0.00 73 1013.2
20260509200720 77 114 0.0 0.0 0.00 0.00 0.00 73 1013.0
20260509200215 75 114 0.0 1.0 0.00 0.00 0.00 74 1013.0
20260509195711 74 83 0.0 1.0 0.00 0.00 0.00 73 1013.4
20260509195207 74 69 0.0 4.0 0.00 0.00 0.00 74 1013.4
20260509194701 75 277 0.0 1.0 0.00 0.00 0.00 76 1013.5
20260509194158 73 49 0.0 2.0 0.00 0.00 0.00 74 1013.3
20260509193654 73 80 0.0 3.0 0.00 0.00 0.00 75 1013.4
20260509193149 74 84 0.0 2.0 0.00 0.00 0.00 75 1013.5
20260509192646 73 8 0.0 0.0 0.00 0.00 0.00 72 1013.8
20260509192142 74 78 0.0 2.0 0.00 0.00 0.00 74 1013.5
20260509191641 74 74 0.0 1.0 0.00 0.00 0.00 73 1013.5
20260509191139 75 263 0.0 5.0 0.00 0.00 0.00 72 1013.7
20260509190635 75 74 0.0 2.0 0.00 0.00 0.00 72 1013.6
20260509190132 77 66 0.0 2.0 0.00 0.00 0.00 72 1013.6
20260509185630 76 71 1.0 2.0 0.00 0.00 0.00 72 1013.7
20260509185126 74 71 0.0 3.0 0.00 0.00 0.00 76 1013.8
20260509184624 72 265 0.0 6.0 0.00 0.00 0.00 74 1013.9
20260509184120 73 45 2.0 3.0 0.00 0.00 0.00 76 1013.8
20260509183616 73 63 0.0 1.0 0.00 0.00 0.00 76 1013.9
20260509183112 73 63 0.0 1.0 0.00 0.00 0.00 76 1013.9
20260509182608 72 33 0.0 4.0 0.00 0.00 0.00 75 1013.9
20260509182105 73 71 0.0 2.0 0.00 0.00 0.00 78 1013.9
20260509181603 72 83 0.0 0.0 0.00 0.00 0.00 78 1013.8
20260509181100 72 35 0.0 2.0 0.00 0.00 0.00 77 1014.1
20260509180556 72 60 0.0 3.0 0.00 0.00 0.00 79 1013.9
20260509180054 72 81 0.0 0.0 0.00 0.00 0.00 77 1014.2
20260509175549 72 294 0.0 2.0 0.00 0.00 0.00 80 1014.2
20260509175046 70 18 0.0 1.0 0.00 0.00 0.00 79 1014.5
20260509174542 70 40 0.0 2.0 0.00 0.00 0.00 79 1014.5
20260509174038 70 0 0.0 3.0 0.00 0.00 0.00 81 1014.4
20260509173532 70 317 4.0 4.0 0.00 0.00 0.00 78 1014.4
20260509173029 70 342 0.0 0.0 0.00 0.00 0.00 80 1014.3
20260509172526 69 342 0.0 0.0 0.00 0.00 0.00 80 1014.6
20260509172021 69 327 0.0 2.0 0.00 0.00 0.00 81 1014.8
20260509171518 69 66 0.0 3.0 0.00 0.00 0.00 81 1014.7
20260509171015 69 351 2.0 3.0 0.00 0.00 0.00 80 1014.9
20260509170510 69 323 4.0 4.0 0.00 0.00 0.00 79 1014.7
20260509170006 69 270 2.0 3.0 0.00 0.00 0.00 78 1014.9
20260509165505 70 60 0.0 4.0 0.00 0.00 0.00 79 1014.8
20260509165001 70 286 0.0 2.0 0.00 0.00 0.00 82 1015.2
20260509164457 70 66 0.0 5.0 0.00 0.00 0.00 78 1015.0
20260509163952 70 60 0.0 3.0 0.00 0.00 0.00 80 1014.8
20260509163451 69 288 2.0 5.0 0.00 0.00 0.00 80 1014.9
20260509162949 70 90 0.0 1.0 0.00 0.00 0.00 82 1015.1
20260509162448 69 85 2.0 2.0 0.00 0.00 0.00 79 1015.3
20260509161944 69 75 1.0 2.0 0.00 0.00 0.00 79 1015.2
20260509161441 70 278 1.0 2.0 0.00 0.00 0.00 81 1015.2
20260509160936 70 281 3.0 3.0 0.00 0.00 0.00 78 1015.5
20260509160432 70 90 0.0 1.0 0.00 0.00 0.00 81 1015.4
20260509155927 71 90 1.0 2.0 0.00 0.00 0.00 81 1015.5
20260509155424 71 300 0.0 1.0 0.00 0.00 0.00 84 1015.5
20260509154921 69 300 0.0 3.0 0.00 0.00 0.00 81 1015.7
20260509154417 68 240 0.0 2.0 0.00 0.00 0.00 83 1015.7
20260509153914 69 83 1.0 2.0 0.00 0.00 0.00 83 1015.5
20260509153411 68 11 0.0 2.0 0.00 0.00 0.00 84 1015.7
20260509152908 67 82 0.0 2.0 0.00 0.00 0.00 85 1015.7
20260509152404 66 74 0.0 2.0 0.00 0.00 0.00 85 1015.5
20260509151901 66 321 4.0 7.0 0.00 0.00 0.00 83 1015.5
20260509151356 68 191 0.0 2.0 0.00 0.00 0.00 83 1015.5
20260509150855 67 303 2.0 5.0 0.00 0.00 0.00 84 1015.1
20260509150353 67 69 0.0 3.0 0.00 0.00 0.00 85 1015.3
20260509145850 67 60 0.0 0.0 0.00 0.00 0.00 87 1015.3
20260509145344 66 81 0.0 2.0 0.00 0.00 0.00 88 1015.5
20260509144841 66 286 0.0 1.0 0.00 0.00 0.00 89 1015.4
20260509144338 65 66 0.0 2.0 0.00 0.00 0.00 88 1015.5
20260509143835 65 342 0.0 3.0 0.00 0.00 0.00 89 1015.3
20260509143333 65 90 0.0 3.0 0.00 0.00 0.00 89 1015.4
20260509142828 65 348 2.0 2.0 0.00 0.00 0.00 88 1015.4
20260509142325 65 69 0.0 0.0 0.00 0.00 0.00 89 1015.2
20260509141820 65 69 0.0 2.0 0.00 0.00 0.00 90 1015.5
20260509141318 65 277 0.0 2.0 0.00 0.00 0.00 91 1015.5
20260509140814 64 81 0.0 0.0 0.00 0.00 0.00 91 1015.5
20260509140312 64 0 0.0 1.0 0.00 0.00 0.00 92 1015.5
20260509135810 64 74 0.0 2.0 0.00 0.00 0.00 92 1015.5
20260509135307 64 66 0.0 0.0 0.00 0.00 0.00 92 1015.7
20260509134804 63 54 0.0 2.0 0.00 0.00 0.00 93 1015.8
20260509134301 63 352 0.0 2.0 0.00 0.00 0.00 93 1015.9
20260509133758 62 57 0.0 2.0 0.00 0.00 0.00 93 1015.8
20260509133254 63 90 1.0 3.0 0.00 0.00 0.00 93 1015.8
20260509132753 63 54 0.0 1.0 0.00 0.00 0.00 94 1015.8
20260509132252 62 110 0.0 2.0 0.00 0.00 0.00 94 1015.8
20260509131748 62 82 0.0 1.0 0.00 0.00 0.00 95 1015.9
20260509131245 61 66 0.0 1.0 0.00 0.00 0.00 95 1015.9
20260509130741 61 66 0.0 1.0 0.00 0.00 0.00 96 1016.0
20260509130236 61 300 0.0 0.0 0.00 0.00 0.00 96 1016.2
20260509125733 60 300 0.0 0.0 0.00 0.00 0.00 96 1016.3
20260509125230 60 172 0.0 0.0 0.00 0.00 0.00 97 1016.3
20260509124726 60 172 0.0 0.0 0.00 0.00 0.00 98 1016.1
20260509124223 59 75 0.0 0.0 0.00 0.00 0.00 99 1016.3
20260509123722 59 74 0.0 0.0 0.00 0.00 0.00 99 1016.2
20260509123218 58 74 0.0 2.0 0.00 0.00 0.00 99 1016.4
20260509122714 58 353 0.0 0.0 0.00 0.00 0.00 99 1016.4
20260509122211 58 74 0.0 1.0 0.00 0.00 0.00 99 1016.5
20260509121708 58 0 0.0 0.0 0.00 0.00 0.00 99 1016.5
20260509121206 58 0 0.0 1.0 0.00 0.00 0.00 99 1016.5
20260509120703 57 286 0.0 0.0 0.00 0.00 0.00 99 1016.3
20260509120201 57 90 0.0 1.0 0.00 0.00 0.00 99 1016.0
20260509115659 56 75 0.0 0.0 0.00 0.00 0.00 99 1016.4
20260509115155 55 35 0.0 1.0 0.00 0.00 0.00 99 1016.3
20260509114654 55 49 0.0 0.0 0.00 0.00 0.00 99 1016.2
20260509114153 55 74 0.0 0.0 0.00 0.00 0.00 99 1016.0
20260509113651 55 63 0.0 0.0 0.00 0.00 0.00 99 1015.8
20260509113147 55 63 0.0 1.0 0.00 0.00 0.00 99 1016.0
20260509112644 54 74 0.0 1.0 0.00 0.00 0.00 99 1016.5
20260509112141 53 0 0.0 0.0 0.00 0.00 0.00 99 1016.3
20260509111638 53 66 0.0 0.0 0.00 0.00 0.00 99 1016.4
20260509111135 53 23 0.0 0.0 0.00 0.00 0.00 99 1016.1
20260509110632 53 71 0.0 1.0 0.00 0.00 0.00 99 1016.3
20260509110129 53 29 0.0 1.0 0.00 0.00 0.00 99 1016.0
20260509105627 52 54 0.0 0.0 0.00 0.00 0.00 99 1016.3
20260509105125 52 14 0.0 1.0 0.00 0.00 0.00 99 1016.1
20260509104621 52 14 0.0 1.0 0.00 0.00 0.00 99 1016.1
20260509104118 51 69 0.0 2.0 0.00 0.00 0.00 99 1015.7
20260509103616 51 60 0.0 0.0 0.00 0.00 0.00 99 1016.0
20260509103114 51 60 0.0 0.0 0.00 0.00 0.00 99 1016.0
20260509102611 51 60 0.0 1.0 0.00 0.00 0.00 99 1015.8
20260509102108 51 71 0.0 0.0 0.00 0.00 0.00 99 1015.7
20260509101604 50 71 0.0 0.0 0.00 0.00 0.00 99 1016.0
20260509101101 50 71 0.0 0.0 0.00 0.00 0.00 99 1015.5
20260509100558 50 71 0.0 1.0 0.00 0.00 0.00 99 1015.4
20260509100055 50 78 0.0 0.0 0.00 0.00 0.00 99 1015.3
20260509095551 50 0 0.0 0.0 0.00 0.00 0.00 99 1015.3
20260509095049 50 0 0.0 1.0 0.00 0.00 0.00 99 1015.4
20260509094545 50 60 0.0 1.0 0.00 0.00 0.00 99 1015.4
20260509094043 50 71 0.0 1.0 0.00 0.00 0.00 99 1015.4
20260509093541 51 8 0.0 0.0 0.00 0.00 0.00 99 1015.4
20260509093038 51 14 0.0 1.0 0.00 0.00 0.00 99 1015.4
20260509092536 51 66 0.0 1.0 0.00 0.00 0.00 99 1015.3
20260509092035 51 81 0.0 0.0 0.00 0.00 0.00 99 1015.7
20260509091532 51 23 0.0 2.0 0.00 0.00 0.00 99 1015.4
20260509091028 51 74 0.0 0.0 0.00 0.00 0.00 99 1015.4
20260509090526 52 74 0.0 0.0 0.00 0.00 0.00 99 1015.3
20260509090023 52 75 0.0 1.0 0.00 0.00 0.00 99 1015.4
20260509085520 52 60 0.0 1.0 0.00 0.00 0.00 99 1015.3
20260509085016 51 0 0.0 2.0 0.00 0.00 0.00 99 1015.4
20260509084513 51 29 1.0 2.0 0.00 0.00 0.00 99 1015.0
20260509084010 51 20 0.0 1.0 0.00 0.00 0.00 99 1015.2
20260509083508 51 54 0.0 0.0 0.00 0.00 0.00 99 1015.2
20260509083004 51 29 0.0 1.0 0.00 0.00 0.00 98 1015.4
20260509082502 51 66 0.0 0.0 0.00 0.00 0.00 98 1015.3
20260509081958 51 66 0.0 1.0 0.00 0.00 0.00 98 1015.3
20260509081456 51 66 0.0 0.0 0.00 0.00 0.00 98 1015.3
20260509080952 51 66 0.0 1.0 0.00 0.00 0.00 98 1015.2
20260509080451 51 0 0.0 0.0 0.00 0.00 0.00 98 1015.3
20260509075948 51 0 0.0 0.0 0.00 0.00 0.00 98 1015.5
20260509075445 51 0 0.0 1.0 0.00 0.00 0.00 98 1015.8
20260509074943 51 15 0.0 1.0 0.00 0.00 0.00 98 1015.8
20260509074440 51 74 0.0 1.0 0.00 0.00 0.00 98 1015.9
20260509073936 51 0 0.0 1.0 0.00 0.00 0.00 98 1015.9
20260509073433 51 54 0.0 1.0 0.00 0.00 0.00 98 1015.7
20260509072929 51 29 0.0 1.0 0.00 0.00 0.00 98 1015.8
20260509072427 51 40 0.0 0.0 0.00 0.00 0.00 98 1016.0
20260509071923 51 40 0.0 2.0 0.00 0.00 0.00 98 1016.0
20260509071420 51 23 0.0 1.0 0.00 0.00 0.00 98 1016.1
20260509070918 51 49 0.0 2.0 0.00 0.00 0.00 98 1016.2
20260509070415 51 60 0.0 2.0 0.00 0.00 0.00 97 1016.1
20260509065909 52 15 0.0 0.0 0.00 0.00 0.00 98 1016.1
20260509065406 51 0 0.0 1.0 0.00 0.00 0.00 98 1016.1
20260509064902 51 23 0.0 0.0 0.00 0.00 0.00 97 1016.2
20260509064400 52 69 0.0 0.0 0.00 0.00 0.00 97 1016.6
20260509063858 52 69 0.0 0.0 0.00 0.00 0.00 97 1016.5
20260509063353 52 81 0.0 1.0 0.00 0.00 0.00 97 1016.6
20260509062851 52 0 0.0 0.0 0.00 0.00 0.00 97 1016.9
20260509062347 52 0 0.0 0.0 0.00 0.00 0.00 97 1016.7
20260509061845 52 74 0.0 0.0 0.00 0.00 0.00 97 1016.8
20260509061343 52 74 0.0 0.0 0.00 0.00 0.00 97 1016.8
20260509060839 53 0 0.0 0.0 0.00 0.00 0.00 97 1016.9
20260509060337 52 0 0.0 0.0 0.00 0.00 0.00 97 1016.9
20260509055832 52 0 0.0 1.0 0.00 0.00 0.00 97 1017.0
20260509055327 53 14 0.0 0.0 0.00 0.00 0.00 97 1017.0
20260509054825 53 14 0.0 0.0 0.00 0.00 0.00 97 1017.1
20260509054321 53 15 0.0 0.0 0.00 0.00 0.00 97 1017.3
20260509053820 53 20 0.0 1.0 0.00 0.00 0.00 97 1017.4
20260509053316 53 0 0.0 0.0 0.00 0.00 0.00 97 1017.5
20260509052815 53 90 0.0 0.0 0.00 0.00 0.00 97 1017.4
20260509052312 53 90 0.0 0.0 0.00 0.00 0.00 97 1017.5
20260509051810 53 8 0.0 0.0 0.00 0.00 0.00 96 1017.4
20260509051308 53 15 0.0 0.0 0.00 0.00 0.00 96 1017.4
20260509050804 53 23 0.0 0.0 0.00 0.00 0.00 96 1017.5
20260509050300 53 23 0.0 0.0 0.00 0.00 0.00 96 1017.6
20260509045758 53 23 0.0 0.0 0.00 0.00 0.00 96 1017.8
20260509045254 53 0 0.0 0.0 0.00 0.00 0.00 96 1017.7
20260509044752 54 0 0.0 0.0 0.00 0.00 0.00 96 1017.7
20260509044249 54 0 0.0 0.0 0.00 0.00 0.00 96 1018.0
20260509043745 54 26 0.0 0.0 0.00 0.00 0.00 96 1018.0
20260509043241 54 26 0.0 0.0 0.00 0.00 0.00 96 1017.9
20260509042738 54 26 0.0 0.0 0.00 0.00 0.00 96 1018.2
20260509042234 54 26 0.0 0.0 0.00 0.00 0.00 95 1017.9
20260509041731 54 23 0.0 0.0 0.00 0.00 0.00 95 1018.1
20260509041228 55 23 0.0 1.0 0.00 0.00 0.00 95 1018.0
20260509040726 55 35 0.0 0.0 0.00 0.00 0.00 95 1017.8
20260509040223 55 35 0.0 0.0 0.00 0.00 0.00 94 1017.9
20260509035719 55 352 0.0 0.0 0.00 0.00 0.00 94 1018.0
20260509035217 55 352 0.0 0.0 0.00 0.00 0.00 94 1018.1
20260509034714 55 352 0.0 0.0 0.00 0.00 0.00 94 1018.2
20260509034211 55 352 0.0 0.0 0.00 0.00 0.00 94 1018.1
20260509033708 56 352 0.0 0.0 0.00 0.00 0.00 94 1017.9
20260509033205 55 15 0.0 0.0 0.00 0.00 0.00 93 1017.9
20260509032702 55 15 0.0 0.0 0.00 0.00 0.00 93 1017.7
20260509032159 55 15 0.0 0.0 0.00 0.00 0.00 93 1017.6
20260509031657 56 15 0.0 0.0 0.00 0.00 0.00 93 1017.7
20260509031154 56 15 0.0 0.0 0.00 0.00 0.00 93 1017.8
20260509030652 56 15 0.0 0.0 0.00 0.00 0.00 93 1017.9
20260509030149 56 15 0.0 0.0 0.00 0.00 0.00 93 1017.8